#timestamp,LO_Frequency,Hit 
1503309615.7,286046997.5,N
1503309635.6,286046999.5,N
1503309655.4,286046997.9,N
1503309675.2,286046997.2,N
1503309695.1,286046998.3,N
1503309696.0,286046998.3,N
1503309715.8,286046999.5,N
1503309735.6,286047001.5,N
1503309755.5,286047000.3,N
1503309775.3,286047002.5,N
1503309795.1,286047002.2,N
1503309815.9,286046999.8,N
1503309835.7,286047002.5,N
1503309855.5,286046998.7,N
1503309875.3,286046996.5,N
1503309895.2,286046996.8,N
1503309915.0,286046995.6,N
1503309915.9,286046995.6,N
1503309935.7,286046997.4,N
1503309955.6,286046995.6,N
1503309975.4,286046996.9,N
1503309995.2,286046996.5,N
1503310015.1,286046998.0,N
1503310016.0,286046998.0,N
1503310035.8,286046999.0,N
1503310055.6,286047001.9,N
1503310075.5,286047002.9,N
1503310095.3,286047004.0,N
1503310115.1,286047005.8,N
1503310135.9,286047008.6,P
1503310155.7,286047007.3,N
1503310175.5,286047003.6,N
1503310195.4,286047004.7,N
1503310215.2,286047003.5,N
1503310235.0,286047005.5,N
1503310235.9,286047005.5,N
1503310255.8,286047002.9,N
1503310275.6,286047001.4,N
1503310295.4,286047001.9,N
1503310315.3,286047000.9,N
1503310335.1,286046996.9,N
1503310336.0,286046996.9,N
1503310355.8,286046996.7,N
1503310375.7,286046999.2,N
1503310395.5,286047002.7,N
1503310415.3,286047001.0,N
1503310435.2,286047000.4,N
1503310455.9,286046999.6,N
1503310475.7,286047001.2,N
1503310495.5,286046996.2,N
1503310515.4,286046995.9,N
1503310535.2,286046995.0,N
1503310555.0,286046996.2,N
1503310555.9,286046996.2,N
1503310575.8,286046993.4,N
1503310595.6,286046993.7,N
1503310615.4,286046995.7,N
1503310635.3,286046996.9,N
1503310655.1,286046993.6,N
1503310656.0,286046993.6,N
1503310675.8,286046999.2,N
1503310695.7,286046998.8,N
1503310715.5,286046995.4,N
1503310735.3,286046996.0,N
1503310755.2,286046994.7,N
1503310775.9,286046993.2,N
1503310795.7,286046992.3,N
1503310815.6,286046996.2,N
1503310835.4,286046992.2,N
1503310855.2,286046996.3,N
1503310875.0,286046996.3,N
1503310876.0,286046996.3,N
1503310895.8,286046996.5,N
1503310915.6,286047000.8,N
1503310935.4,286047001.2,N
1503310955.3,286046998.8,N
1503310975.1,286046996.3,N
1503310995.8,286046992.2,P
1503311015.7,286046991.7,P
1503311035.5,286046994.0,N
1503311055.3,286046996.4,N
1503311075.2,286046996.3,N
1503311095.0,286046995.0,N
1503311095.9,286046995.0,N
1503311115.7,286046996.5,N
1503311135.6,286047001.0,N
1503311155.4,286046996.5,N
1503311175.2,286046997.2,N
1503311195.1,286046993.6,N
1503311196.0,286046993.6,N
1503311215.8,286046995.6,N
1503311235.6,286046998.0,N
1503311255.5,286046998.4,N
1503311275.3,286046997.5,N
1503311295.1,286046995.6,N
1503311315.9,286046999.4,N
1503311335.7,286046997.5,N
1503311355.5,286046996.3,N
1503311375.3,286046997.1,N
1503311395.2,286047001.9,N
1503311415.0,286047000.1,N
1503311415.9,286047000.1,N
1503311435.7,286046999.5,N
1503311455.6,286046996.9,N
1503311475.4,286046999.0,N
1503311495.2,286046996.0,N
1503311515.1,286046994.8,N
1503311516.0,286046994.8,N
1503311535.8,286046992.5,P
1503311555.6,286046997.3,N
1503311575.5,286046995.1,N
1503311595.3,286046995.8,N
1503311615.1,286046996.4,N
1503311635.9,286046995.0,P
1503311655.7,286047000.5,N
1503311675.5,286047000.3,N
1503311695.4,286046999.9,N
1503311715.2,286046999.0,N
1503311735.0,286047004.0,N
1503311735.9,286047004.0,N
1503311755.8,286047003.4,N
1503311775.6,286047003.2,N
1503311795.4,286046998.6,N
1503311815.3,286047000.2,N
1503311835.1,286047000.0,N
1503311836.0,286047000.0,N
1503311855.8,286046998.7,N
1503311875.7,286046998.5,N
1503311895.5,286047002.0,N
1503311915.3,286047001.9,N
1503311935.2,286047002.3,N
1503311955.9,286047002.9,N
1503311975.7,286046999.9,N
1503311995.6,286046999.5,N
1503312015.4,286046996.7,N
1503312035.2,286046997.4,N
1503312055.0,286046995.4,N
1503312055.9,286046995.4,N
1503312075.8,286046999.4,N
1503312095.6,286046998.9,N
1503312115.4,286046995.5,N
1503312135.3,286046993.4,N
1503312155.1,286046995.0,N
1503312175.8,286046999.0,N
1503312195.7,286047001.0,N
1503312215.5,286047000.8,N
1503312235.3,286046997.5,N
1503312255.2,286046999.9,N
1503312275.9,286046998.9,N
1503312295.7,286046995.3,N
1503312315.6,286046999.2,N
1503312335.4,286046996.4,N
1503312355.2,286046994.3,N
1503312375.0,286046993.5,N
1503312376.0,286046993.5,N
1503312395.8,286046996.3,N
1503312415.6,286046996.4,N
1503312435.4,286046996.1,N
1503312455.3,286046997.9,N
1503312475.1,286046994.9,N
1503312495.8,286046993.6,N
1503312515.7,286046999.4,N
1503312535.5,286046998.6,N
1503312555.3,286047002.2,N
1503312575.2,286047000.0,N
1503312595.9,286047003.8,N
1503312615.7,286047001.4,N
1503312635.6,286046998.6,N
1503312655.4,286046999.1,N
1503312675.2,286046999.0,N
1503312695.1,286047000.7,N
1503312696.0,286047000.7,N
1503312715.8,286046997.4,N
1503312735.6,286046997.5,N
1503312755.5,286046995.3,N
1503312775.3,286047000.3,N
1503312795.1,286046995.7,N
1503312815.8,286046997.5,N
1503312835.7,286046999.5,N
1503312855.5,286046998.3,N
1503312875.3,286046995.3,N
1503312895.2,286047000.0,N
1503312915.9,286046999.5,N
1503312935.7,286046995.5,N
1503312955.6,286046994.9,N
1503312975.4,286047000.7,N
1503312995.2,286047001.5,N
1503313015.1,286047002.2,N
1503313016.0,286047002.2,N
1503313035.8,286047002.8,N
1503313055.6,286046998.0,N
1503313075.5,286046999.5,N
1503313095.3,286046996.6,N
1503313115.1,286046998.5,N
1503313135.9,286046998.4,N
1503313155.7,286046998.2,N
1503313175.5,286046999.6,N
1503313195.3,286047002.7,N
